CZ-6A DEB

Satellite information

Favourite Embed

Satellite Type and Status

DEBRISIN ORBIT

Key statistics

Satellite CZ-6A DEB at a glance.

Uptime

1077

Days in orbit

Revolutions

≈ 14.7

Per day

Orbit

SSO

Sun Synchronous Orbit

Inclination

98.6

Latest

Satellite identification and parameters

Extended collection of information and parameters for CZ-6A DEB.

Object identification

Identified? True

Debris? True

Object name: CZ-6A DEB

International designator: 2022-151ADB

Object number (NORAD): 56283

Object ID (CCSDS): 56283

Country: PEOPLES REPUBLIC OF CHINA (PRC)

Current information (Y/N): Y

RCS size: SMALL

Orbital parameters

Period: 98.14 minutes

Inclination: 98.5874 deg

SMA: 7047.867 km

Apoapsis: 715.117 km

Periapsis: 624.348 km

RAAN: 329.2405 deg

Eccentricy: 0.00643947

Argument of periapsis: 331.5949 deg

Mean anomaly: 28.1748 deg

Mean motion: 14.6729071 rev/day

Mean motion (dot): 0.00023121 rev/day2

B* drag term: 0.0039711164 1/REarth

Two-line elements (TLE)

Creation date: Oct. 22, 2025, 5:40 p.m.

Reference frame: TEME

Reference center: EARTH

Epoch: Oct. 22, 2025, 7:41 a.m. UTC

TLE line 0: 0 CZ-6A DEB

TLE line 1: 1 56283U 22151ADB 25295.32022423 .00023121 00000-0 39711-2 0 9998

TLE line 2: 2 56283 98.5874 329.2405 0064395 331.5949 28.1748 14.67290710137067

Live tracking on map

Real-time ground track for satellite CZ-6A DEB.

In-orbit conjunctions

A list of the most updated potential collisions computed for object CZ-6A DEB.

Target Orbit TCA Probability of collision Miss distance Type
COSMOS 2251 DEB LEO 2024-11-15 00:31:13 0.001021256 265.0 (m) DEBRIS
ARIANE 1 DEB SSO 2024-11-12 01:14:35 0.0001528069 959.0 (m) DEBRIS
COSMOS 1331 LEO 2024-06-29 14:36:12 0.0003696046 314.0 (m) PAYLOAD

Associated space launch

Chinese satellite reported for atmospheric/ocean/environmental/spatial parameter research purposes, details TBD.

CZ-6A DEB was lifted into orbit during the mission ‘Long March 6A | Yunhai 3’, on board a Long March 6A space rocket.

The launch took place on Nov. 11, 2022, 10:52 p.m. from Launch Complex 9A.

For more information about the launch, click the button.

Launch to space Long March 6A | Yunhai 3
Long March 6A | Yunhai 3

Agency: N/A

Status: Launch Successful

Launch date: Nov. 11, 2022, 10:52 p.m. UTC

Rocket: Long March 6A

Launch pad: Launch Complex 9A

Location: Taiyuan Satellite Launch Center, People's Republic of China

...

Latest news about this satellite

There are no fresh news available about this satellite. Check back as we update our databases every day.


Newsletter sign-up

Weekly statistics, charts and insights to help you stay on top of the space industry.